Thermopolis, WY

2:43 AM MDT on October 17, 2017 (GMT -0600)
Thermopolis

Weather History for KTBX - October, 2012

Change the Weather History Date:

Saturday, October 6, 2012

  Actual Average (KWRL) Record (KWRL)
Temperature  
Mean Temperature 26 °F -  
Max Temperature 32 °F 66 °F 88 °F (1975)
Min Temperature 19 °F 34 °F 21 °F (2001)
Degree Days  
Heating Degree Days 40    
Moisture  
Dew Point 20 °F    
Average Humidity 77    
Maximum Humidity 100    
Minimum Humidity 64    
Precipitation  
Precipitation 0.00 in - - ()
Sea Level Pressure  
Sea Level Pressure 30.32 in    
Wind  
Wind Speed 16 mph ()    
Max Wind Speed 34 mph    
Max Gust Speed 17 mph    
Visibility 10.0 miles    
Events      
Averages and records for this station are not official NWS values.
T = Trace of Precipitation, MM = Missing Value Source: Averaged Metar Reports

Daily Weather History Graph

Daily Weather History Graph

Search for Another Location

Airport or City:

Trip Planner

Search our weather history database for the weather conditions in past years. The results will help you decide how hot, cold, wet, or windy it might be!

Date:

Astronomy

Oct. 06, 2012 Rise Set
Actual Time 7:16 AM MDT 6:44 PM MDT
Civil Twilight 6:48 AM MDT 7:12 PM MDT
Nautical Twilight 6:15 AM MDT 7:45 PM MDT
Astronomical Twilight 5:41 AM MDT 8:19 PM MDT
Moon 10:54 PM MDT (10/6) 1:21 PM MDT (10/6)
Length of Visible Light 12h 24m
Length of Day
11h 27m
Waning Gibbous, 65% of the Moon is Illuminated
Oct 6
Waning Gibbous
Oct 8
Last Quarter
Oct 15
New
Oct 21
First Quarter
Oct 29
Full

Hourly Weather History & Observations

Time (MDT) Temp. Windchill Dew Point Humidity Pressure Visibility Wind Dir Wind Speed Gust Speed Precip Events Conditions
12:15 AM - - - N/A% 30.30 in - NW 32.2 mph - N/A   Overcast
12:35 AM - - - N/A% 30.30 in - NW 33.4 mph - N/A   Overcast
12:55 AM - - - N/A% 30.31 in - NW 34.5 mph - N/A   Overcast
1:15 AM - - - N/A% 30.32 in - NW 31.1 mph - N/A   Overcast
1:35 AM - - - N/A% 30.32 in - WNW 28.8 mph - N/A   Overcast
1:55 AM - - - N/A% 30.32 in - North - - N/A   Overcast
2:15 AM - - - N/A% 30.32 in - NW 28.8 mph - N/A   Overcast
2:35 AM - - - N/A% 30.33 in - NW 27.6 mph - N/A   Overcast
2:55 AM - - - N/A% 30.33 in - NW 26.5 mph - N/A   Overcast
3:15 AM - - - N/A% 30.34 in - NW 27.6 mph - N/A   Overcast
3:35 AM - - - N/A% 30.33 in - NW 28.8 mph - N/A   Overcast
3:55 AM - - - N/A% 30.33 in - NW 28.8 mph - N/A   Overcast
4:35 AM - - - N/A% 30.34 in - NW 23.0 mph - N/A   Overcast
4:55 AM - - - N/A% 30.34 in - NW 19.6 mph - N/A   Overcast
5:15 AM - - - N/A% 30.34 in - NW 20.7 mph - N/A   Overcast
5:35 AM - - - N/A% 30.35 in - NW 17.3 mph - N/A   Unknown
6:15 AM - - - N/A% 30.34 in - NW 21.9 mph - N/A   Overcast
6:35 AM - - - N/A% 30.35 in - NW 19.6 mph - N/A   Overcast
6:55 AM - - - N/A% 30.35 in - WNW 17.3 mph - N/A   Overcast
7:15 AM - - - N/A% 30.35 in - NW 15.0 mph - N/A   Overcast
7:35 AM - - - N/A% 30.35 in - NW 15.0 mph - N/A   Mostly Cloudy
7:55 AM - - - N/A% 30.36 in - NW 11.5 mph - N/A   Unknown
8:15 AM - - - N/A% 30.36 in - WNW 11.5 mph - N/A   Unknown
8:35 AM - - - N/A% 30.37 in - WNW 9.2 mph - N/A   Unknown
8:55 AM - - - N/A% 30.38 in - WSW 5.8 mph - N/A   Unknown
9:15 AM - - - N/A% 30.38 in - West 8.1 mph - N/A   Unknown
9:35 AM 19.4 °F 10.4 °F 17.6 °F 93% 30.38 in - West 6.9 mph - N/A   Unknown
9:55 AM 21.2 °F 14.9 °F 19.4 °F 93% 30.38 in - South 4.6 mph - N/A   Unknown
10:15 AM 21.2 °F 10.9 °F 19.4 °F 93% 30.38 in - SE 9.2 mph - N/A   Unknown
10:35 AM 21.2 °F 9.5 °F 21.2 °F 100% 30.38 in - SE 11.5 mph - N/A   Unknown
10:55 AM 23.0 °F 13.1 °F 21.2 °F 93% 30.37 in - SE 9.2 mph - N/A   Overcast
11:15 AM 23.0 °F 11.1 °F 21.2 °F 93% 30.36 in - SE 12.7 mph 17.3 mph N/A   Overcast
11:35 AM 23.0 °F 11.7 °F 21.2 °F 93% 30.36 in - SE 11.5 mph - N/A   Overcast
11:55 AM 23.0 °F 11.7 °F 21.2 °F 93% 30.36 in - SSE 11.5 mph - N/A   Overcast
12:15 PM 23.0 °F 11.1 °F 23.0 °F 100% 30.36 in - SE 12.7 mph 17.3 mph N/A   Unknown
12:35 PM 23.0 °F 13.1 °F 23.0 °F 100% 30.36 in - SSE 9.2 mph - N/A   Overcast
12:55 PM 23.0 °F 11.7 °F 23.0 °F 100% 30.36 in - SE 11.5 mph 16.1 mph N/A   Unknown
1:15 PM 24.8 °F 16.1 °F 23.0 °F 93% 30.35 in - SE 8.1 mph - N/A   Unknown
1:35 PM 26.6 °F 19.1 °F 23.0 °F 86% 30.34 in - SSE 6.9 mph - N/A   Unknown
2:15 PM 28.4 °F 23.3 °F 21.2 °F 74% 30.32 in - SSE 4.6 mph - N/A   Clear
2:35 PM 28.4 °F 24.6 °F 21.2 °F 74% 30.31 in - South 3.5 mph - N/A   Clear
2:55 PM 30.2 °F 26.7 °F 21.2 °F 69% 30.31 in 10.0 mi SSW 3.5 mph - N/A   Clear
3:15 PM 30.2 °F 24.3 °F 19.4 °F 64% 30.30 in 10.0 mi South 5.8 mph - N/A   Clear
3:35 PM 30.2 °F - 21.2 °F 69% 30.30 in 10.0 mi Calm Calm - N/A   Clear
3:55 PM 30.2 °F 26.7 °F 21.2 °F 69% 30.30 in 10.0 mi SSE 3.5 mph - N/A   Clear
4:15 PM 30.2 °F - 21.2 °F 69% 30.29 in 10.0 mi Calm Calm - N/A   Clear
4:35 PM 30.2 °F - 19.4 °F 64% 30.28 in 10.0 mi Calm Calm - N/A   Clear
5:15 PM 32.0 °F - 21.2 °F 64% 30.28 in 10.0 mi Calm Calm - N/A   Scattered Clouds
5:35 PM 30.2 °F - 21.2 °F 69% 30.28 in 10.0 mi Calm Calm - N/A   Scattered Clouds
5:55 PM 30.2 °F - 21.2 °F 69% 30.27 in 10.0 mi Calm Calm - N/A   Mostly Cloudy
6:15 PM 30.2 °F - 21.2 °F 69% 30.27 in 10.0 mi Calm Calm - N/A   Mostly Cloudy
6:35 PM 30.2 °F - 21.2 °F 69% 30.26 in 10.0 mi Calm Calm - N/A   Mostly Cloudy
6:55 PM 28.4 °F 24.6 °F 19.4 °F 69% 30.26 in 10.0 mi SSE 3.5 mph - N/A   Clear
7:15 PM 28.4 °F 24.6 °F 19.4 °F 69% 30.26 in 10.0 mi SSE 3.5 mph - N/A   Scattered Clouds
7:35 PM 28.4 °F 24.6 °F 19.4 °F 69% 30.26 in 10.0 mi SE 3.5 mph - N/A   Mostly Cloudy
7:55 PM 28.4 °F 22.2 °F 19.4 °F 69% 30.27 in 10.0 mi SSE 5.8 mph - N/A   Scattered Clouds
8:15 PM 28.4 °F 24.6 °F 19.4 °F 69% 30.28 in 10.0 mi SSE 3.5 mph - N/A   Clear
8:35 PM 28.4 °F - 19.4 °F 69% 30.28 in 10.0 mi Calm Calm - N/A   Clear
8:55 PM 28.4 °F 23.3 °F 19.4 °F 69% 30.28 in 10.0 mi SSE 4.6 mph - N/A   Clear
9:15 PM 28.4 °F 23.3 °F 19.4 °F 69% 30.28 in 10.0 mi South 4.6 mph - N/A   Clear
9:35 PM 28.4 °F - 19.4 °F 69% 30.28 in 10.0 mi Calm Calm - N/A   Clear
9:55 PM 28.4 °F 23.3 °F 19.4 °F 69% 30.28 in 10.0 mi West 4.6 mph - N/A   Scattered Clouds
10:15 PM 28.4 °F 23.3 °F 19.4 °F 69% 30.28 in 10.0 mi West 4.6 mph - N/A   Scattered Clouds
10:35 PM 28.4 °F 23.3 °F 19.4 °F 69% 30.27 in 10.0 mi West 4.6 mph - N/A   Mostly Cloudy
10:55 PM 28.4 °F 23.3 °F 19.4 °F 69% 30.27 in 10.0 mi WNW 4.6 mph - N/A   Scattered Clouds
11:15 PM 28.4 °F 19.1 °F 19.4 °F 69% 30.26 in 10.0 mi WNW 10.4 mph - N/A   Scattered Clouds
11:35 PM 26.6 °F 16.8 °F 19.4 °F 74% 30.26 in 10.0 mi West 10.4 mph - N/A   Scattered Clouds
11:55 PM 26.6 °F 18.2 °F 19.4 °F 74% 30.26 in 10.0 mi West 8.1 mph - N/A   Scattered Clouds